Location: Caracas
(10.5033°N, 66.8422°W)
Time: 10:46:12
(UTC-04:00)

Envisat - Visible Passes

Search period start: 20 May 2019 00:00
Search period end: 30 May 2019 00:00
Orbit: 764 x 766 km, 98.2° (Epoch: 19 May)

Date Brightness Start Highest point End Pass type
(mag) Time Alt. Az. Time Alt. Az. Time Alt. Az.
20 May 4.1 19:41:00 10° S 19:45:49 45° W 19:50:39 10° NNW visible
21 May 3.0 19:04:08 10° SSE 19:09:09 63° ENE 19:14:09 10° N visible
22 May 5.3 20:07:28 10° SSW 20:11:19 22° W 20:15:10 10° NW visible
23 May 3.5 19:29:36 10° S 19:34:37 62° WSW 19:39:36 10° NNW visible
25 May 4.8 19:55:44 10° SSW 20:00:06 29° W 20:04:28 10° NW visible
26 May 3.1 19:18:19 10° S 19:23:24 84° WSW 19:28:28 10° NNW visible
27 May 5.7 20:22:58 10° SW 20:25:36 14° W 20:28:14 10° WNW visible
28 May 4.3 19:44:10 10° S 19:48:52 40° W 19:53:36 10° NNW visible
29 May 3.0 19:07:09 10° SSE 19:12:12 72° ENE 19:17:14 10° N visible
